Location: Camps Bay
(33.9517°S, 18.3844°E)
Time: 17:53:24
(UTC+00:00)

Cosmos 2315 Rocket - Pass Details

Date: 18 January 2020
Orbit: 966 x 1002 km, 82.9° (Epoch: 18 February)

Event Time Altitude Azimuth Distance (km) Brightness Sun altitude
Rises 02:05:52 0° 187° (S) 3,758 7.6 -19.2°
Reaches altitude 10° 02:08:25 10° 186° (S) 2,803 6.9 -18.8°
Maximum altitude 02:14:54 89° 274° (W) 1,015 4.0 -17.8°
Drops below altitude 10° 02:21:16 10° 4° (N) 2,763 6.0 -16.8°
Enters shadow 02:22:19 - 4° (N) 3,151 6.3 -16.7°
